Location: Unspecified
(0.0000°N, 0.0000°E)
Time: 21:10:48
(UTC+00:00)

N. Korean satellite - Pass Details

Date: 03 August 2021
Orbit: 449 x 498 km, 97.3° (Epoch: 25 September)

Event Time Altitude Azimuth Distance (km) Brightness Sun altitude
Rises 04:42:07 0° 19° (NNE) 2,472 10.7 -20.0°
Reaches altitude 10° 04:44:12 10° 24° (NNE) 1,593 9.7 -19.5°
Maximum altitude 04:47:31 51° 101° (E) 576 7.2 -18.7°
Enters shadow 04:50:46 10° 178° (S) 1,561 9.0 -18.0°
